| time (UTC) | temp F | wind direction | speed MPH | gust MPH | rain 1hr in | rain 24hr in | rain mn in | humidity % | barometer mb |
| 20260506190623 | 42 | 137 | 0.0 | 2.0 | 0.00 | 0.45 | 0.44 | 80 | 996.5 |
| 20260506185607 | 42 | 137 | 0.0 | 2.0 | 0.00 | 0.45 | 0.44 | 80 | 996.3 |
| 20260506184604 | 42 | 137 | 1.0 | 2.0 | 0.00 | 0.45 | 0.44 | 80 | 996.2 |
| 20260506183602 | 43 | 137 | 0.0 | 3.0 | 0.00 | 0.45 | 0.44 | 80 | 995.9 |
| 20260506181552 | 43 | 2 | 0.0 | 3.0 | 0.00 | 0.45 | 0.44 | 81 | 995.9 |
| 20260506175535 | 44 | 2 | 0.0 | 4.0 | 0.00 | 0.45 | 0.44 | 80 | 995.8 |
| 20260506174535 | 44 | 69 | 0.0 | 2.0 | 0.00 | 0.45 | 0.44 | 80 | 995.8 |
| 20260506172530 | 45 | 137 | 1.0 | 6.0 | 0.00 | 0.45 | 0.44 | 80 | 995.6 |
| 20260506170535 | 46 | 11 | 2.0 | 6.0 | 0.00 | 0.45 | 0.44 | 80 | 995.6 |
| 20260506165532 | 47 | 0 | 3.0 | 8.0 | 0.00 | 0.45 | 0.44 | 79 | 995.6 |
| 20260506164517 | 47 | 356 | 3.0 | 8.0 | 0.00 | 0.45 | 0.44 | 79 | 995.4 |
| 20260506163524 | 47 | 36 | 1.0 | 5.0 | 0.00 | 0.45 | 0.44 | 79 | 995.3 |
| 20260506162510 | 47 | 16 | 1.0 | 4.0 | 0.00 | 0.45 | 0.44 | 78 | 995.1 |
| 20260506161509 | 47 | 131 | 0.0 | 4.0 | 0.00 | 0.45 | 0.44 | 79 | 995.1 |
| 20260506160515 | 47 | 131 | 2.0 | 4.0 | 0.00 | 0.45 | 0.44 | 78 | 995.0 |
| 20260506155446 | 49 | 115 | 1.0 | 4.0 | 0.00 | 0.45 | 0.44 | 76 | 994.9 |
| 20260506154443 | 50 | 63 | 1.0 | 5.0 | 0.00 | 0.45 | 0.44 | 77 | 994.9 |
| 20260506153456 | 49 | 139 | 2.0 | 5.0 | 0.00 | 0.45 | 0.44 | 79 | 994.9 |
| 20260506152437 | 47 | 131 | 3.0 | 6.0 | 0.00 | 0.45 | 0.44 | 79 | 995.0 |
| 20260506151433 | 46 | 150 | 1.0 | 4.0 | 0.00 | 0.45 | 0.44 | 80 | 995.1 |
| 20260506150444 | 45 | 138 | 2.0 | 4.0 | 0.00 | 0.45 | 0.44 | 80 | 995.3 |
| 20260506145431 | 45 | 128 | 2.0 | 4.0 | 0.00 | 0.45 | 0.44 | 80 | 995.3 |
| 20260506144429 | 45 | 141 | 1.0 | 5.0 | 0.00 | 0.45 | 0.44 | 80 | 995.4 |
| 20260506141434 | 42 | 149 | 3.0 | 5.0 | 0.06 | 0.45 | 0.44 | 80 | 995.7 |
| 20260506140426 | 41 | 165 | 2.0 | 4.0 | 0.09 | 0.45 | 0.44 | 80 | 995.8 |
| 20260506135436 | 40 | 267 | 2.0 | 5.0 | 0.13 | 0.45 | 0.44 | 80 | 996.1 |
| 20260506134436 | 40 | 309 | 2.0 | 5.0 | 0.17 | 0.45 | 0.44 | 80 | 995.9 |
| 20260506133434 | 39 | 162 | 2.0 | 5.0 | 0.21 | 0.45 | 0.44 | 81 | 995.8 |
| 20260506131403 | 40 | 191 | 3.0 | 9.0 | 0.19 | 0.39 | 0.38 | 81 | 995.9 |
| 20260506130402 | 40 | 201 | 4.0 | 9.0 | 0.17 | 0.35 | 0.34 | 81 | 995.7 |
| 20260506124405 | 42 | 231 | 5.0 | 14.0 | 0.12 | 0.28 | 0.28 | 81 | 995.4 |
| 20260506121401 | 44 | 180 | 5.0 | 12.0 | 0.04 | 0.20 | 0.19 | 80 | 994.8 |
| 20260506120359 | 45 | 191 | 3.0 | 9.0 | 0.03 | 0.19 | 0.18 | 80 | 994.6 |
| 20260506115359 | 45 | 176 | 3.0 | 9.0 | 0.05 | 0.19 | 0.17 | 80 | 994.4 |
| 20260506114410 | 45 | 244 | 6.0 | 12.0 | 0.04 | 0.17 | 0.16 | 80 | 994.2 |
| 20260506113406 | 46 | 176 | 8.0 | 13.0 | 0.05 | 0.17 | 0.16 | 80 | 994.1 |
| 20260506112416 | 46 | 191 | 5.0 | 12.0 | 0.06 | 0.17 | 0.16 | 80 | 994.1 |
| 20260506105334 | 46 | 334 | 1.0 | 3.0 | 0.03 | 0.14 | 0.13 | 80 | 994.0 |
| 20260506104328 | 46 | 142 | 1.0 | 3.0 | 0.02 | 0.13 | 0.12 | 80 | 994.0 |
| 20260506103328 | 47 | 142 | 1.0 | 3.0 | 0.01 | 0.12 | 0.11 | 80 | 993.8 |
| 20260506102325 | 46 | 171 | 1.0 | 5.0 | 0.00 | 0.11 | 0.10 | 80 | 993.8 |
| 20260506101318 | 46 | 196 | 2.0 | 5.0 | 0.00 | 0.11 | 0.10 | 80 | 993.8 |
| 20260506094258 | 47 | 48 | 0.0 | 2.0 | 0.01 | 0.11 | 0.10 | 79 | 993.6 |
| 20260506093310 | 47 | 28 | 2.0 | 6.0 | 0.01 | 0.11 | 0.10 | 80 | 993.8 |
| 20260506092325 | 47 | 5 | 2.0 | 8.0 | 0.01 | 0.11 | 0.10 | 80 | 993.9 |
| 20260506091309 | 47 | 130 | 2.0 | 9.0 | 0.01 | 0.11 | 0.10 | 80 | 993.8 |
| 20260506090258 | 47 | 128 | 1.0 | 4.0 | 0.00 | 0.10 | 0.09 | 80 | 993.8 |
| 20260506084252 | 46 | 119 | 1.0 | 6.0 | 0.00 | 0.10 | 0.09 | 80 | 993.9 |
| 20260506083250 | 45 | 105 | 2.0 | 8.0 | 0.00 | 0.10 | 0.09 | 81 | 993.9 |
| 20260506081256 | 44 | 132 | 3.0 | 8.0 | 0.00 | 0.10 | 0.09 | 80 | 994.0 |
| 20260506080250 | 44 | 122 | 3.0 | 5.0 | 0.00 | 0.10 | 0.09 | 81 | 994.0 |
| 20260506073246 | 44 | 26 | 1.0 | 4.0 | 0.03 | 0.10 | 0.09 | 80 | 994.1 |
| 20260506071235 | 44 | 22 | 1.0 | 5.0 | 0.06 | 0.10 | 0.09 | 78 | 994.1 |
| 20260506070237 | 43 | 21 | 0.0 | 4.0 | 0.06 | 0.10 | 0.09 | 77 | 994.2 |
| 20260506061150 | 42 | 155 | 1.0 | 2.0 | 0.00 | 0.04 | 0.03 | 77 | 994.6 |
| 20260506060149 | 42 | 155 | 0.0 | 1.0 | 0.00 | 0.04 | 0.03 | 77 | 994.3 |
| 20260506051125 | 41 | 155 | 0.0 | 2.0 | 0.00 | 0.04 | 0.03 | 78 | 994.6 |
| 20260506050122 | 41 | 155 | 1.0 | 2.0 | 0.00 | 0.04 | 0.03 | 78 | 994.7 |
| 20260506045120 | 41 | 155 | 0.0 | 2.0 | 0.00 | 0.04 | 0.03 | 77 | 994.6 |
| 20260506044118 | 41 | 155 | 1.0 | 2.0 | 0.00 | 0.04 | 0.03 | 78 | 994.8 |
| 20260506043113 | 40 | 155 | 0.0 | 2.0 | 0.00 | 0.04 | 0.03 | 78 | 994.7 |
| 20260506042120 | 41 | 155 | 0.0 | 2.0 | 0.01 | 0.04 | 0.03 | 78 | 994.7 |
| 20260506041104 | 41 | 155 | 0.0 | 2.0 | 0.01 | 0.04 | 0.03 | 78 | 994.9 |
| 20260506040104 | 41 | 155 | 0.0 | 1.0 | 0.01 | 0.04 | 0.03 | 77 | 995.0 |
| 20260506035103 | 41 | 155 | 0.0 | 1.0 | 0.01 | 0.04 | 0.03 | 77 | 995.1 |
| 20260506034122 | 40 | 155 | 1.0 | 3.0 | 0.01 | 0.04 | 0.03 | 77 | 995.4 |
| 20260506033118 | 40 | 155 | 1.0 | 3.0 | 0.01 | 0.04 | 0.03 | 78 | 995.4 |
| 20260506032125 | 40 | 155 | 0.0 | 3.0 | 0.00 | 0.03 | 0.02 | 78 | 995.5 |
| 20260506031127 | 40 | 155 | 1.0 | 3.0 | 0.00 | 0.03 | 0.02 | 78 | 995.5 |
| 20260506030116 | 40 | 142 | 0.0 | 3.0 | 0.00 | 0.03 | 0.02 | 78 | 995.6 |
| 20260506025111 | 40 | 142 | 0.0 | 3.0 | 0.00 | 0.03 | 0.02 | 79 | 995.7 |
| 20260506023105 | 41 | 142 | 1.0 | 3.0 | 0.00 | 0.03 | 0.02 | 79 | 995.9 |
| 20260506022127 | 41 | 235 | 0.0 | 3.0 | 0.00 | 0.03 | 0.02 | 79 | 995.8 |
| 20260506021131 | 41 | 226 | 1.0 | 3.0 | 0.00 | 0.03 | 0.02 | 79 | 995.9 |
| 20260506020106 | 41 | 226 | 0.0 | 2.0 | 0.00 | 0.03 | 0.02 | 79 | 995.8 |
| 20260506015100 | 41 | 206 | 0.0 | 2.0 | 0.00 | 0.03 | 0.02 | 79 | 995.9 |
| 20260506014100 | 41 | 206 | 0.0 | 2.0 | 0.00 | 0.03 | 0.02 | 79 | 996.1 |
| 20260506013056 | 42 | 206 | 1.0 | 4.0 | 0.01 | 0.03 | 0.02 | 78 | 996.2 |
| 20260506012116 | 42 | 211 | 3.0 | 4.0 | 0.01 | 0.03 | 0.02 | 78 | 996.5 |
| 20260506011046 | 42 | 235 | 1.0 | 3.0 | 0.01 | 0.03 | 0.02 | 78 | 996.6 |
| 20260506005954 | 42 | 221 | 1.0 | 2.0 | 0.02 | 0.03 | 0.02 | 79 | 996.9 |
| 20260506004950 | 42 | 224 | 0.0 | 1.0 | 0.02 | 0.03 | 0.02 | 79 | 996.9 |
| 20260506003949 | 42 | 224 | 0.0 | 2.0 | 0.02 | 0.03 | 0.02 | 79 | 997.0 |
| 20260506002944 | 42 | 224 | 0.0 | 2.0 | 0.01 | 0.02 | 0.02 | 78 | 997.0 |
| 20260506001941 | 42 | 180 | 0.0 | 2.0 | 0.01 | 0.02 | 0.02 | 79 | 997.2 |
| 20260506000936 | 42 | 180 | 0.0 | 2.0 | 0.01 | 0.02 | 0.02 | 79 | 997.1 |
| 20260505235934 | 42 | 180 | 0.0 | 1.0 | 0.00 | 0.02 | 0.01 | 79 | 997.2 |
| 20260505234926 | 42 | 180 | 0.0 | 1.0 | 0.00 | 0.02 | 0.01 | 79 | 997.4 |
| 20260505233925 | 42 | 180 | 0.0 | 2.0 | 0.00 | 0.02 | 0.01 | 79 | 997.7 |
| 20260505232922 | 42 | 180 | 0.0 | 2.0 | 0.01 | 0.02 | 0.01 | 79 | 997.7 |
| 20260505231932 | 42 | 180 | 0.0 | 1.0 | 0.01 | 0.02 | 0.01 | 79 | 997.7 |
| 20260505230926 | 42 | 180 | 0.0 | 2.0 | 0.01 | 0.02 | 0.01 | 80 | 997.7 |
| 20260505225928 | 42 | 180 | 0.0 | 2.0 | 0.01 | 0.02 | 0.01 | 80 | 997.5 |
| 20260505224921 | 42 | 180 | 1.0 | 4.0 | 0.01 | 0.02 | 0.01 | 79 | 997.8 |
| 20260505222926 | 42 | 284 | 1.0 | 3.0 | 0.00 | 0.01 | 0.00 | 80 | 997.9 |
| 20260505221911 | 42 | 172 | 1.0 | 3.0 | 0.00 | 0.01 | 0.00 | 80 | 997.9 |
| 20260505220911 | 43 | 172 | 0.0 | 2.0 | 0.00 | 0.01 | 0.00 | 80 | 997.9 |
| 20260505214848 | 43 | 172 | 2.0 | 5.0 | 0.01 | 0.01 | 0.01 | 80 | 997.9 |
| 20260505213847 | 43 | 220 | 2.0 | 5.0 | 0.01 | 0.01 | 0.01 | 80 | 998.1 |
| 20260505212853 | 43 | 172 | 2.0 | 2.0 | 0.01 | 0.01 | 0.01 | 80 | 998.1 |
| 20260505211851 | 44 | 71 | 1.0 | 4.0 | 0.01 | 0.01 | 0.01 | 80 | 998.2 |
| 20260505205843 | 45 | 155 | 2.0 | 4.0 | 0.01 | 0.01 | 0.01 | 79 | 998.5 |
| 20260505204848 | 45 | 152 | 1.0 | 3.0 | 0.00 | 0.00 | 0.00 | 78 | 998.4 |
| 20260505203846 | 46 | 152 | 1.0 | 3.0 | 0.00 | 0.00 | 0.00 | 77 | 998.1 |
| 20260505202826 | 46 | 152 | 0.0 | 2.0 | 0.00 | 0.00 | 0.00 | 76 | 998.0 |
| 20260505195822 | 46 | 152 | 0.0 | 2.0 | 0.00 | 0.00 | 0.00 | 75 | 997.9 |
| 20260505194809 | 46 | 152 | 0.0 | 4.0 | 0.00 | 0.00 | 0.00 | 75 | 997.9 |
| 20260505193821 | 47 | 152 | 1.0 | 4.0 | 0.00 | 0.00 | 0.00 | 75 | 997.8 |
| 20260505192838 | 47 | 20 | 1.0 | 4.0 | 0.00 | 0.00 | 0.00 | 74 | 997.7 |
| 20260505190756 | 47 | 145 | 1.0 | 3.0 | 0.00 | 0.00 | 0.00 | 73 | 997.7 |